Location: Hohenfelde
(53.8441°N, 9.6220°E)
Time: 12:11:29
(UTC+00:00)

ATLAS 5 CENTAUR R/B - Pass Details

Date: 14 July 2020
Orbit: 534 x 1124 km, 63.4° (Epoch: 06 August)

Event Time Altitude Azimuth Distance (km) Brightness Sun altitude
Rises 01:33:15 0° 311° (NW) 3,183 5.4 -9.8°
Reaches altitude 10° 01:35:28 10° 310° (NW) 2,340 4.6 -9.6°
Maximum altitude 01:40:54 79° 225° (SW) 900 2.3 -9.2°
Drops below altitude 10° 01:47:19 10° 140° (SE) 2,738 4.7 -8.7°
Sets 01:50:06 0° 139° (SE) 3,762 5.4 -8.5°
